Time,TemperatureF,DewpointF,PressureIn,WindDirection,WindDirectionDegrees,WindSpeedMPH,WindSpeedGustMPH,Humidity,HourlyPrecipIn,Conditions,Clouds,dailyrainin,SoftwareType,DateUTC
2013-08-12 00:01:00,83.8,75.0,30.13,ENE,67,5.4,6.0,75,0.00,,,0.00,Rainwise IP-100,2013-08-12 04:01:00,
2013-08-12 00:06:00,83.7,75.0,30.14,NNE,22,3.7,7.0,75,0.00,,,0.00,Rainwise IP-100,2013-08-12 04:06:00,
2013-08-12 00:11:00,83.3,74.0,30.14,East,90,4.0,9.0,76,0.00,,,0.00,Rainwise IP-100,2013-08-12 04:11:00,
2013-08-12 00:16:00,82.9,74.0,30.13,ESE,112,7.2,10.0,76,0.00,,,0.00,Rainwise IP-100,2013-08-12 04:16:00,
2013-08-12 00:21:00,82.6,74.0,30.13,East,90,5.1,9.0,77,0.00,,,0.00,Rainwise IP-100,2013-08-12 04:21:00,
2013-08-12 00:26:00,82.4,74.0,30.13,ENE,67,5.4,9.0,78,0.00,,,0.00,Rainwise IP-100,2013-08-12 04:26:00,
2013-08-12 00:31:00,82.4,75.0,30.13,East,90,2.8,5.0,79,0.00,,,0.00,Rainwise IP-100,2013-08-12 04:31:00,
2013-08-12 00:36:00,82.6,74.0,30.13,ESE,112,4.9,7.0,78,0.00,,,0.00,Rainwise IP-100,2013-08-12 04:36:00,
2013-08-12 00:42:00,82.7,75.0,30.13,ENE,67,4.0,5.0,78,0.00,,,0.00,Rainwise IP-100,2013-08-12 04:42:00,
2013-08-12 00:47:00,82.8,75.0,30.13,ENE,67,4.2,7.0,78,0.00,,,0.00,Rainwise IP-100,2013-08-12 04:47:00,
2013-08-12 00:52:00,82.8,75.0,30.12,ENE,67,5.8,8.0,79,0.00,,,0.00,Rainwise IP-100,2013-08-12 04:52:00,
2013-08-12 00:57:00,82.8,75.0,30.12,ENE,67,4.0,7.0,79,0.00,,,0.00,Rainwise IP-100,2013-08-12 04:57:00,
2013-08-12 01:02:00,82.7,75.0,30.12,ENE,67,4.4,6.0,79,0.00,,,0.00,Rainwise IP-100,2013-08-12 05:02:00,
2013-08-12 01:07:00,82.7,76.0,30.12,ENE,67,4.4,8.0,80,0.00,,,0.00,Rainwise IP-100,2013-08-12 05:07:00,
2013-08-12 01:12:00,82.6,76.0,30.12,ENE,67,2.3,8.0,80,0.00,,,0.00,Rainwise IP-100,2013-08-12 05:12:00,
2013-08-12 01:18:00,82.7,76.0,30.11,ENE,67,1.9,7.0,80,0.00,,,0.00,Rainwise IP-100,2013-08-12 05:18:00,
2013-08-12 01:23:00,82.7,76.0,30.11,East,90,4.2,6.0,81,0.00,,,0.00,Rainwise IP-100,2013-08-12 05:23:00,
2013-08-12 01:28:00,82.7,76.0,30.11,NE,45,8.4,9.0,80,0.00,,,0.00,Rainwise IP-100,2013-08-12 05:28:00,
2013-08-12 01:33:00,82.8,75.0,30.11,ENE,67,6.1,12.0,79,0.00,,,0.00,Rainwise IP-100,2013-08-12 05:33:00,
2013-08-12 01:38:00,82.9,75.0,30.11,ENE,67,4.9,10.0,77,0.00,,,0.00,Rainwise IP-100,2013-08-12 05:38:00,
2013-08-12 01:43:00,83.0,74.0,30.11,ENE,67,7.7,11.0,76,0.00,,,0.00,Rainwise IP-100,2013-08-12 05:43:00,
2013-08-12 01:48:00,83.1,74.0,30.11,ENE,67,8.2,11.0,75,0.00,,,0.00,Rainwise IP-100,2013-08-12 05:48:00,
2013-08-12 01:53:00,83.2,74.0,30.11,ENE,67,4.2,14.0,75,0.00,,,0.00,Rainwise IP-100,2013-08-12 05:53:00,
2013-08-12 01:59:00,83.2,74.0,30.11,ESE,112,4.9,11.0,75,0.00,,,0.00,Rainwise IP-100,2013-08-12 05:59:00,
2013-08-12 02:04:00,83.1,74.0,30.11,ENE,67,3.7,11.0,75,0.00,,,0.00,Rainwise IP-100,2013-08-12 06:04:00,
2013-08-12 02:09:00,83.1,74.0,30.11,ENE,67,5.4,9.0,75,0.00,,,0.00,Rainwise IP-100,2013-08-12 06:09:00,
2013-08-12 02:14:00,83.0,74.0,30.11,ENE,67,8.2,9.0,75,0.00,,,0.00,Rainwise IP-100,2013-08-12 06:14:00,
2013-08-12 02:19:00,83.0,74.0,30.11,East,90,2.1,11.0,75,0.00,,,0.00,Rainwise IP-100,2013-08-12 06:19:00,
2013-08-12 02:24:00,83.1,74.0,30.11,ENE,67,4.0,8.0,75,0.00,,,0.00,Rainwise IP-100,2013-08-12 06:24:00,
2013-08-12 02:29:00,83.1,74.0,30.11,ENE,67,4.2,11.0,76,0.00,,,0.00,Rainwise IP-100,2013-08-12 06:29:00,
2013-08-12 02:35:00,83.0,74.0,30.10,ENE,67,7.9,10.0,76,0.00,,,0.00,Rainwise IP-100,2013-08-12 06:35:00,
2013-08-12 02:40:00,82.8,74.0,30.10,NNE,22,7.5,12.0,77,0.00,,,0.00,Rainwise IP-100,2013-08-12 06:40:00,
2013-08-12 02:45:00,82.7,74.0,30.10,NNE,22,6.5,11.0,76,0.00,,,0.00,Rainwise IP-100,2013-08-12 06:45:00,
2013-08-12 02:50:00,82.7,74.0,30.10,ENE,67,7.9,10.0,76,0.00,,,0.00,Rainwise IP-100,2013-08-12 06:50:00,
2013-08-12 02:55:00,82.7,74.0,30.10,ENE,67,6.3,11.0,75,0.00,,,0.00,Rainwise IP-100,2013-08-12 06:55:00,
2013-08-12 03:00:00,82.7,73.0,30.10,ENE,67,6.8,9.0,74,0.00,,,0.00,Rainwise IP-100,2013-08-12 07:00:00,
2013-08-12 03:05:00,82.7,73.0,30.10,NE,45,7.0,11.0,74,0.00,,,0.00,Rainwise IP-100,2013-08-12 07:05:00,
2013-08-12 03:10:00,82.6,73.0,30.10,NE,45,5.4,11.0,75,0.00,,,0.00,Rainwise IP-100,2013-08-12 07:10:00,
2013-08-12 03:16:00,82.5,73.0,30.10,ENE,67,4.4,7.0,74,0.00,,,0.00,Rainwise IP-100,2013-08-12 07:16:00,
2013-08-12 03:21:00,82.5,73.0,30.10,NE,45,8.2,9.0,74,0.00,,,0.00,Rainwise IP-100,2013-08-12 07:21:00,
2013-08-12 03:26:00,82.6,73.0,30.10,NE,45,6.8,9.0,73,0.00,,,0.00,Rainwise IP-100,2013-08-12 07:26:00,
2013-08-12 03:31:00,82.6,73.0,30.09,ENE,67,6.8,8.0,74,0.00,,,0.00,Rainwise IP-100,2013-08-12 07:31:00,
2013-08-12 03:36:00,82.6,73.0,30.09,NNE,22,5.1,8.0,74,0.00,,,0.00,Rainwise IP-100,2013-08-12 07:36:00,
2013-08-12 03:41:00,82.5,73.0,30.09,ENE,67,6.5,10.0,74,0.00,,,0.00,Rainwise IP-100,2013-08-12 07:41:00,
2013-08-12 03:46:00,82.5,73.0,30.09,NE,45,7.7,8.0,74,0.00,,,0.00,Rainwise IP-100,2013-08-12 07:46:00,
2013-08-12 03:52:00,82.5,73.0,30.09,ENE,67,4.4,9.0,74,0.00,,,0.00,Rainwise IP-100,2013-08-12 07:52:00,
2013-08-12 03:57:00,82.5,73.0,30.09,NE,45,7.0,8.0,73,0.00,,,0.00,Rainwise IP-100,2013-08-12 07:57:00,
2013-08-12 04:02:00,82.5,72.0,30.09,ENE,67,4.4,9.0,72,0.00,,,0.00,Rainwise IP-100,2013-08-12 08:02:00,
2013-08-12 04:07:00,82.5,72.0,30.09,NE,45,5.6,8.0,72,0.00,,,0.00,Rainwise IP-100,2013-08-12 08:07:00,
2013-08-12 04:12:00,82.4,72.0,30.09,ENE,67,10.3,10.3,72,0.00,,,0.00,Rainwise IP-100,2013-08-12 08:12:00,
2013-08-12 04:17:00,82.4,72.0,30.09,NE,45,4.7,10.0,72,0.00,,,0.00,Rainwise IP-100,2013-08-12 08:17:00,
2013-08-12 04:22:00,82.5,73.0,30.09,ENE,67,5.6,7.0,73,0.00,,,0.00,Rainwise IP-100,2013-08-12 08:22:00,
2013-08-12 04:27:00,82.5,73.0,30.09,NE,45,5.1,8.0,74,0.00,,,0.00,Rainwise IP-100,2013-08-12 08:27:00,
2013-08-12 04:33:00,82.4,73.0,30.09,ENE,67,5.1,9.0,75,0.00,,,0.00,Rainwise IP-100,2013-08-12 08:33:00,
2013-08-12 04:38:00,82.4,73.0,30.09,NE,45,7.9,10.0,75,0.00,,,0.00,Rainwise IP-100,2013-08-12 08:38:00,
2013-08-12 04:43:00,82.4,73.0,30.09,ENE,67,4.7,11.0,75,0.00,,,0.00,Rainwise IP-100,2013-08-12 08:43:00,
2013-08-12 04:48:00,82.4,73.0,30.09,ENE,67,6.1,8.0,75,0.00,,,0.00,Rainwise IP-100,2013-08-12 08:48:00,
2013-08-12 04:53:00,82.4,73.0,30.09,ENE,67,4.9,9.0,75,0.00,,,0.00,Rainwise IP-100,2013-08-12 08:53:00,
2013-08-12 04:58:00,82.3,73.0,30.09,ENE,67,7.7,7.7,75,0.00,,,0.00,Rainwise IP-100,2013-08-12 08:58:00,
2013-08-12 05:03:00,82.3,73.0,30.08,NE,45,7.7,9.0,75,0.00,,,0.00,Rainwise IP-100,2013-08-12 09:03:00,
2013-08-12 05:09:00,82.3,73.0,30.08,NE,45,6.5,11.0,75,0.00,,,0.00,Rainwise IP-100,2013-08-12 09:09:00,
2013-08-12 05:14:00,82.3,73.0,30.08,ENE,67,9.6,10.0,76,0.00,,,0.00,Rainwise IP-100,2013-08-12 09:14:00,
2013-08-12 05:19:00,82.2,73.0,30.08,ENE,67,7.2,9.0,76,0.00,,,0.00,Rainwise IP-100,2013-08-12 09:19:00,
2013-08-12 05:24:00,82.1,73.0,30.09,ENE,67,5.6,10.0,75,0.00,,,0.00,Rainwise IP-100,2013-08-12 09:24:00,
2013-08-12 05:29:00,82.1,72.0,30.09,ENE,67,7.9,10.0,74,0.00,,,0.00,Rainwise IP-100,2013-08-12 09:29:00,
2013-08-12 05:34:00,82.1,72.0,30.09,NE,45,3.7,10.0,73,0.00,,,0.00,Rainwise IP-100,2013-08-12 09:34:00,
2013-08-12 05:39:00,82.2,72.0,30.09,NE,45,6.5,10.0,73,0.00,,,0.00,Rainwise IP-100,2013-08-12 09:39:00,
2013-08-12 05:44:00,82.2,72.0,30.09,ENE,67,7.7,11.0,73,0.00,,,0.00,Rainwise IP-100,2013-08-12 09:44:00,
2013-08-12 05:50:00,82.2,72.0,30.09,ENE,67,7.2,9.0,73,0.00,,,0.00,Rainwise IP-100,2013-08-12 09:50:00,
2013-08-12 05:55:00,82.3,72.0,30.09,NE,45,3.3,9.0,73,0.00,,,0.00,Rainwise IP-100,2013-08-12 09:55:00,
2013-08-12 06:00:00,82.3,73.0,30.09,ENE,67,7.2,11.0,74,0.00,,,0.00,Rainwise IP-100,2013-08-12 10:00:00,
2013-08-12 06:05:00,82.2,73.0,30.09,ENE,67,8.6,11.0,75,0.00,,,0.00,Rainwise IP-100,2013-08-12 10:05:00,
2013-08-12 06:10:00,82.1,73.0,30.09,ENE,67,5.6,10.0,76,0.00,,,0.00,Rainwise IP-100,2013-08-12 10:10:00,
2013-08-12 06:15:00,82.1,73.0,30.09,ENE,67,6.8,9.0,76,0.00,,,0.00,Rainwise IP-100,2013-08-12 10:15:00,
2013-08-12 06:20:00,82.1,73.0,30.09,ENE,67,7.2,8.0,76,0.00,,,0.00,Rainwise IP-100,2013-08-12 10:20:00,
2013-08-12 06:26:00,82.1,73.0,30.09,ENE,67,3.5,12.0,76,0.00,,,0.00,Rainwise IP-100,2013-08-12 10:26:00,
2013-08-12 06:31:00,82.0,73.0,30.09,ENE,67,5.8,11.0,75,0.00,,,0.00,Rainwise IP-100,2013-08-12 10:31:00,
2013-08-12 06:36:00,82.0,73.0,30.09,NE,45,7.7,12.0,75,0.00,,,0.00,Rainwise IP-100,2013-08-12 10:36:00,
2013-08-12 06:41:00,82.1,72.0,30.09,NE,45,8.2,10.0,74,0.00,,,0.00,Rainwise IP-100,2013-08-12 10:41:00,
2013-08-12 06:46:00,82.1,73.0,30.09,ENE,67,6.5,11.0,75,0.00,,,0.00,Rainwise IP-100,2013-08-12 10:46:00,
2013-08-12 06:51:00,82.1,73.0,30.09,ENE,67,6.1,10.0,75,0.00,,,0.00,Rainwise IP-100,2013-08-12 10:51:00,
2013-08-12 06:56:00,82.2,73.0,30.09,ENE,67,6.1,10.0,76,0.00,,,0.00,Rainwise IP-100,2013-08-12 10:56:00,
2013-08-12 07:01:00,82.2,73.0,30.09,ENE,67,4.7,9.0,76,0.00,,,0.00,Rainwise IP-100,2013-08-12 11:01:00,
2013-08-12 07:07:00,82.2,74.0,30.09,NE,45,6.5,10.0,77,0.00,,,0.00,Rainwise IP-100,2013-08-12 11:07:00,
2013-08-12 07:12:00,82.3,74.0,30.09,NE,45,9.3,10.0,77,0.00,,,0.00,Rainwise IP-100,2013-08-12 11:12:00,
2013-08-12 07:17:00,82.4,74.0,30.09,ENE,67,6.3,11.0,78,0.00,,,0.00,Rainwise IP-100,2013-08-12 11:17:00,
2013-08-12 07:22:00,82.5,74.0,30.09,East,90,3.5,11.0,78,0.00,,,0.00,Rainwise IP-100,2013-08-12 11:22:00,
2013-08-12 07:27:00,82.5,74.0,30.09,NE,45,6.5,11.0,77,0.00,,,0.00,Rainwise IP-100,2013-08-12 11:27:00,
2013-08-12 07:32:00,82.5,74.0,30.09,NE,45,9.6,12.0,76,0.00,,,0.00,Rainwise IP-100,2013-08-12 11:32:00,
2013-08-12 07:37:00,82.5,74.0,30.09,NNE,22,5.1,11.0,76,0.00,,,0.00,Rainwise IP-100,2013-08-12 11:37:00,
2013-08-12 07:43:00,82.5,73.0,30.09,ENE,67,6.8,12.0,75,0.00,,,0.00,Rainwise IP-100,2013-08-12 11:43:00,
2013-08-12 07:48:00,82.7,74.0,30.09,NE,45,9.6,10.0,75,0.00,,,0.00,Rainwise IP-100,2013-08-12 11:48:00,
2013-08-12 07:53:00,82.7,74.0,30.10,NNE,22,8.4,10.0,76,0.00,,,0.00,Rainwise IP-100,2013-08-12 11:53:00,
2013-08-12 07:58:00,82.8,74.0,30.10,ENE,67,7.7,12.0,76,0.00,,,0.00,Rainwise IP-100,2013-08-12 11:58:00,
2013-08-12 08:03:00,83.1,74.0,30.10,ENE,67,5.4,12.0,76,0.00,,,0.00,Rainwise IP-100,2013-08-12 12:03:00,
2013-08-12 08:08:00,83.4,74.0,30.10,NE,45,6.8,10.0,75,0.00,,,0.00,Rainwise IP-100,2013-08-12 12:08:00,
2013-08-12 08:13:00,83.7,75.0,30.10,NE,45,6.5,11.0,75,0.00,,,0.00,Rainwise IP-100,2013-08-12 12:13:00,
2013-08-12 08:18:00,83.9,74.0,30.10,ENE,67,4.7,11.0,74,0.00,,,0.00,Rainwise IP-100,2013-08-12 12:18:00,
2013-08-12 08:24:00,83.7,74.0,30.11,NE,45,5.6,10.0,73,0.00,,,0.00,Rainwise IP-100,2013-08-12 12:24:00,
2013-08-12 08:29:00,83.6,74.0,30.11,NE,45,11.2,11.2,73,0.00,,,0.00,Rainwise IP-100,2013-08-12 12:29:00,
2013-08-12 08:34:00,83.7,74.0,30.10,NE,45,7.0,11.0,74,0.00,,,0.00,Rainwise IP-100,2013-08-12 12:34:00,
2013-08-12 08:39:00,83.6,74.0,30.11,NE,45,9.6,12.0,74,0.00,,,0.00,Rainwise IP-100,2013-08-12 12:39:00,
2013-08-12 08:44:00,83.6,74.0,30.11,NNE,22,10.7,13.0,74,0.00,,,0.00,Rainwise IP-100,2013-08-12 12:44:00,
2013-08-12 08:49:00,83.7,74.0,30.10,NNE,22,7.0,13.0,74,0.00,,,0.00,Rainwise IP-100,2013-08-12 12:49:00,
2013-08-12 08:54:00,84.0,74.0,30.11,NE,45,10.3,12.0,74,0.00,,,0.00,Rainwise IP-100,2013-08-12 12:54:00,
2013-08-12 09:00:00,84.2,75.0,30.10,NE,45,12.1,14.0,74,0.00,,,0.00,Rainwise IP-100,2013-08-12 13:00:00,
2013-08-12 09:05:00,84.2,74.0,30.11,ENE,67,10.0,12.0,73,0.00,,,0.00,Rainwise IP-100,2013-08-12 13:05:00,
2013-08-12 09:10:00,84.3,74.0,30.11,ENE,67,6.5,13.0,73,0.00,,,0.00,Rainwise IP-100,2013-08-12 13:10:00,
2013-08-12 09:15:00,84.3,74.0,30.11,NE,45,13.1,13.1,73,0.00,,,0.00,Rainwise IP-100,2013-08-12 13:15:00,
2013-08-12 09:20:00,84.4,74.0,30.11,ENE,67,6.5,15.0,73,0.00,,,0.00,Rainwise IP-100,2013-08-12 13:20:00,
2013-08-12 09:25:00,84.7,75.0,30.11,ENE,67,7.2,14.0,73,0.00,,,0.00,Rainwise IP-100,2013-08-12 13:25:00,
2013-08-12 09:30:00,84.8,74.0,30.11,ENE,67,7.0,15.0,72,0.00,,,0.00,Rainwise IP-100,2013-08-12 13:30:00,
2013-08-12 09:35:00,85.0,74.0,30.10,NE,45,8.4,13.0,71,0.00,,,0.00,Rainwise IP-100,2013-08-12 13:35:00,
2013-08-12 09:41:00,85.0,73.0,30.09,ENE,67,13.8,16.0,69,0.00,,,0.00,Rainwise IP-100,2013-08-12 13:41:00,
2013-08-12 09:46:00,85.0,73.0,30.09,ENE,67,13.3,16.0,69,0.00,,,0.00,Rainwise IP-100,2013-08-12 13:46:00,
2013-08-12 09:51:00,85.1,73.0,30.10,NE,45,6.8,15.0,69,0.00,,,0.00,Rainwise IP-100,2013-08-12 13:51:00,
2013-08-12 09:56:00,85.3,73.0,30.10,East,90,8.2,15.0,69,0.00,,,0.00,Rainwise IP-100,2013-08-12 13:56:00,
2013-08-12 10:01:00,85.5,74.0,30.10,ENE,67,11.4,15.0,69,0.00,,,0.00,Rainwise IP-100,2013-08-12 14:01:00,
2013-08-12 10:06:00,85.6,73.0,30.10,ENE,67,9.3,13.0,68,0.00,,,0.00,Rainwise IP-100,2013-08-12 14:06:00,
2013-08-12 10:11:00,85.6,73.0,30.10,ENE,67,8.9,14.0,68,0.00,,,0.00,Rainwise IP-100,2013-08-12 14:11:00,
2013-08-12 10:17:00,85.6,73.0,30.10,NNE,22,11.0,14.0,68,0.00,,,0.00,Rainwise IP-100,2013-08-12 14:17:00,
2013-08-12 10:22:00,85.7,73.0,30.10,NNE,22,9.8,13.0,68,0.00,,,0.00,Rainwise IP-100,2013-08-12 14:22:00,
2013-08-12 10:27:00,85.6,73.0,30.11,ENE,67,7.2,13.0,68,0.00,,,0.00,Rainwise IP-100,2013-08-12 14:27:00,
2013-08-12 10:32:00,85.5,73.0,30.10,ENE,67,7.5,12.0,68,0.00,,,0.00,Rainwise IP-100,2013-08-12 14:32:00,
2013-08-12 10:37:00,85.6,73.0,30.11,ENE,67,11.4,14.0,68,0.00,,,0.00,Rainwise IP-100,2013-08-12 14:37:00,
2013-08-12 10:42:00,85.9,73.0,30.10,ENE,67,9.3,13.0,67,0.00,,,0.00,Rainwise IP-100,2013-08-12 14:42:00,
2013-08-12 10:47:00,86.1,74.0,30.11,ENE,67,5.1,13.0,68,0.00,,,0.00,Rainwise IP-100,2013-08-12 14:47:00,
2013-08-12 10:52:00,86.1,73.0,30.11,NNE,22,9.3,12.0,67,0.00,,,0.00,Rainwise IP-100,2013-08-12 14:52:00,
2013-08-12 10:58:00,86.2,73.0,30.11,ENE,67,6.3,14.0,67,0.00,,,0.00,Rainwise IP-100,2013-08-12 14:58:00,
2013-08-12 11:03:00,86.2,74.0,30.11,ENE,67,6.8,13.0,68,0.00,,,0.00,Rainwise IP-100,2013-08-12 15:03:00,
2013-08-12 11:08:00,86.3,74.0,30.11,NNE,22,11.0,14.0,68,0.00,,,0.00,Rainwise IP-100,2013-08-12 15:08:00,
2013-08-12 11:13:00,86.4,74.0,30.11,ENE,67,6.8,13.0,67,0.00,,,0.00,Rainwise IP-100,2013-08-12 15:13:00,
2013-08-12 11:18:00,86.2,73.0,30.11,ENE,67,11.0,14.0,67,0.00,,,0.00,Rainwise IP-100,2013-08-12 15:18:00,
2013-08-12 11:23:00,85.8,73.0,30.11,ENE,67,8.2,13.0,67,0.00,,,0.00,Rainwise IP-100,2013-08-12 15:23:00,
2013-08-12 11:28:00,85.9,73.0,30.11,NE,45,8.9,12.0,66,0.00,,,0.00,Rainwise IP-100,2013-08-12 15:28:00,
2013-08-12 11:34:00,86.1,73.0,30.11,ENE,67,11.7,12.0,66,0.00,,,0.00,Rainwise IP-100,2013-08-12 15:34:00,
2013-08-12 11:39:00,85.9,72.0,30.11,ENE,67,2.8,11.0,65,0.00,,,0.00,Rainwise IP-100,2013-08-12 15:39:00,
2013-08-12 11:44:00,86.4,73.0,30.11,ENE,67,5.6,11.0,66,0.00,,,0.00,Rainwise IP-100,2013-08-12 15:44:00,
2013-08-12 11:49:00,86.8,73.0,30.11,NNE,22,7.5,10.0,66,0.00,,,0.00,Rainwise IP-100,2013-08-12 15:49:00,
2013-08-12 11:54:00,86.6,74.0,30.11,ENE,67,6.5,10.0,67,0.00,,,0.00,Rainwise IP-100,2013-08-12 15:54:00,
2013-08-12 11:59:00,86.2,74.0,30.11,NE,45,13.1,13.1,68,0.00,,,0.00,Rainwise IP-100,2013-08-12 15:59:00,
2013-08-12 12:04:00,85.9,74.0,30.10,ENE,67,5.8,14.0,68,0.00,,,0.00,Rainwise IP-100,2013-08-12 16:04:00,
2013-08-12 12:09:00,86.3,74.0,30.10,ESE,112,10.7,12.0,68,0.00,,,0.00,Rainwise IP-100,2013-08-12 16:09:00,
2013-08-12 12:15:00,86.5,74.0,30.10,ENE,67,10.5,13.0,68,0.00,,,0.00,Rainwise IP-100,2013-08-12 16:15:00,
2013-08-12 12:20:00,86.5,73.0,30.10,ENE,67,6.5,14.0,66,0.00,,,0.00,Rainwise IP-100,2013-08-12 16:20:00,
2013-08-12 12:25:00,86.4,73.0,30.10,NE,45,8.9,12.0,66,0.00,,,0.00,Rainwise IP-100,2013-08-12 16:25:00,
2013-08-12 12:30:00,86.1,73.0,30.09,ENE,67,6.3,14.0,67,0.00,,,0.00,Rainwise IP-100,2013-08-12 16:30:00,
2013-08-12 12:35:00,86.0,73.0,30.10,ESE,112,6.8,15.0,67,0.00,,,0.00,Rainwise IP-100,2013-08-12 16:35:00,
2013-08-12 12:40:00,86.2,74.0,30.09,ENE,67,12.4,13.0,68,0.00,,,0.00,Rainwise IP-100,2013-08-12 16:40:00,
2013-08-12 12:45:00,86.1,74.0,30.09,NE,45,11.7,14.0,68,0.00,,,0.00,Rainwise IP-100,2013-08-12 16:45:00,
2013-08-12 12:51:00,85.9,74.0,30.10,ENE,67,10.3,14.0,68,0.00,,,0.00,Rainwise IP-100,2013-08-12 16:51:00,
2013-08-12 12:56:00,85.7,74.0,30.09,NE,45,8.4,14.0,69,0.00,,,0.00,Rainwise IP-100,2013-08-12 16:56:00,
2013-08-12 13:01:00,85.8,74.0,30.09,ENE,67,8.4,14.0,70,0.00,,,0.00,Rainwise IP-100,2013-08-12 17:01:00,
2013-08-12 13:06:00,85.7,74.0,30.09,ENE,67,6.8,14.0,70,0.00,,,0.00,Rainwise IP-100,2013-08-12 17:06:00,
2013-08-12 13:11:00,85.8,74.0,30.09,ESE,112,7.2,14.0,70,0.00,,,0.00,Rainwise IP-100,2013-08-12 17:11:00,
2013-08-12 13:16:00,86.0,75.0,30.09,NNE,22,9.1,11.0,70,0.00,,,0.00,Rainwise IP-100,2013-08-12 17:16:00,
2013-08-12 13:21:00,86.2,74.0,30.09,ENE,67,6.3,13.0,68,0.00,,,0.00,Rainwise IP-100,2013-08-12 17:21:00,
2013-08-12 13:26:00,86.3,73.0,30.09,NE,45,11.0,12.0,67,0.00,,,0.00,Rainwise IP-100,2013-08-12 17:26:00,
2013-08-12 13:32:00,86.3,73.0,30.09,East,90,6.8,12.0,66,0.00,,,0.00,Rainwise IP-100,2013-08-12 17:32:00,
2013-08-12 13:37:00,86.4,73.0,30.09,ENE,67,5.4,12.0,65,0.00,,,0.00,Rainwise IP-100,2013-08-12 17:37:00,
2013-08-12 13:42:00,86.3,73.0,30.09,ENE,67,7.0,13.0,65,0.00,,,0.00,Rainwise IP-100,2013-08-12 17:42:00,
2013-08-12 13:47:00,86.4,73.0,30.09,ENE,67,10.3,12.0,65,0.00,,,0.00,Rainwise IP-100,2013-08-12 17:47:00,
2013-08-12 13:52:00,86.4,72.0,30.09,ENE,67,7.0,13.0,64,0.00,,,0.00,Rainwise IP-100,2013-08-12 17:52:00,
2013-08-12 13:57:00,86.3,72.0,30.09,ESE,112,8.2,13.0,64,0.00,,,0.00,Rainwise IP-100,2013-08-12 17:57:00,
2013-08-12 14:02:00,86.1,72.0,30.08,East,90,7.5,11.0,65,0.00,,,0.00,Rainwise IP-100,2013-08-12 18:02:00,
2013-08-12 14:08:00,86.0,72.0,30.09,ENE,67,8.2,13.0,64,0.00,,,0.00,Rainwise IP-100,2013-08-12 18:08:00,
2013-08-12 14:13:00,86.2,72.0,30.09,ENE,67,4.0,10.0,64,0.00,,,0.00,Rainwise IP-100,2013-08-12 18:13:00,
2013-08-12 14:14:00,86.2,72.0,30.09,ENE,67,6.5,10.0,64,0.00,,,0.00,Rainwise IP-100,2013-08-12 18:14:00,
2013-08-12 14:19:00,86.4,72.0,30.08,ENE,67,5.4,10.0,64,0.00,,,0.00,Rainwise IP-100,2013-08-12 18:19:00,
2013-08-12 14:24:00,86.7,72.0,30.08,East,90,5.4,10.0,63,0.00,,,0.00,Rainwise IP-100,2013-08-12 18:24:00,
2013-08-12 14:29:00,86.9,72.0,30.08,NE,45,8.6,14.0,63,0.00,,,0.00,Rainwise IP-100,2013-08-12 18:29:00,
2013-08-12 14:34:00,86.6,72.0,30.07,ENE,67,9.6,14.0,63,0.00,,,0.00,Rainwise IP-100,2013-08-12 18:34:00,
2013-08-12 14:39:00,86.6,72.0,30.07,ENE,67,5.1,13.0,64,0.00,,,0.00,Rainwise IP-100,2013-08-12 18:39:00,
2013-08-12 14:44:00,86.8,73.0,30.07,NE,45,10.7,11.0,64,0.00,,,0.00,Rainwise IP-100,2013-08-12 18:44:00,
2013-08-12 14:50:00,87.3,73.0,30.07,NE,45,8.4,15.0,63,0.00,,,0.00,Rainwise IP-100,2013-08-12 18:50:00,
2013-08-12 14:55:00,87.3,72.0,30.07,ENE,67,11.0,15.0,62,0.00,,,0.00,Rainwise IP-100,2013-08-12 18:55:00,
2013-08-12 15:00:00,87.0,72.0,30.07,NNE,22,8.9,14.0,62,0.00,,,0.00,Rainwise IP-100,2013-08-12 19:00:00,
2013-08-12 15:05:00,87.1,72.0,30.07,NNE,22,9.3,12.0,63,0.00,,,0.00,Rainwise IP-100,2013-08-12 19:05:00,
2013-08-12 15:10:00,87.2,73.0,30.06,ENE,67,6.5,13.0,63,0.00,,,0.00,Rainwise IP-100,2013-08-12 19:10:00,
2013-08-12 15:15:00,87.3,73.0,30.06,NNE,22,9.8,15.0,63,0.00,,,0.00,Rainwise IP-100,2013-08-12 19:15:00,
2013-08-12 15:20:00,87.3,73.0,30.06,NNE,22,8.2,14.0,63,0.00,,,0.00,Rainwise IP-100,2013-08-12 19:20:00,
2013-08-12 15:25:00,87.2,72.0,30.06,NE,45,8.9,12.0,62,0.00,,,0.00,Rainwise IP-100,2013-08-12 19:25:00,
2013-08-12 15:31:00,86.8,72.0,30.06,ENE,67,8.6,11.0,62,0.00,,,0.00,Rainwise IP-100,2013-08-12 19:31:00,
2013-08-12 15:36:00,86.1,72.0,30.06,ENE,67,6.5,11.0,64,0.00,,,0.00,Rainwise IP-100,2013-08-12 19:36:00,
2013-08-12 15:41:00,85.7,71.0,30.06,ESE,112,5.4,12.0,63,0.00,,,0.00,Rainwise IP-100,2013-08-12 19:41:00,
2013-08-12 15:46:00,85.4,72.0,30.06,ENE,67,5.6,11.0,64,0.00,,,0.00,Rainwise IP-100,2013-08-12 19:46:00,
2013-08-12 15:51:00,85.3,72.0,30.06,ENE,67,7.0,11.0,66,0.00,,,0.00,Rainwise IP-100,2013-08-12 19:51:00,
2013-08-12 15:56:00,85.3,72.0,30.07,ENE,67,4.7,13.0,66,0.00,,,0.00,Rainwise IP-100,2013-08-12 19:56:00,
2013-08-12 16:01:00,85.7,73.0,30.06,East,90,8.9,9.0,66,0.00,,,0.00,Rainwise IP-100,2013-08-12 20:01:00,
2013-08-12 16:07:00,85.8,73.0,30.06,NE,45,7.2,10.0,67,0.00,,,0.00,Rainwise IP-100,2013-08-12 20:07:00,
2013-08-12 16:12:00,85.8,73.0,30.06,East,90,5.6,10.0,67,0.00,,,0.00,Rainwise IP-100,2013-08-12 20:12:00,
2013-08-12 16:17:00,85.6,73.0,30.06,NE,45,5.4,9.0,67,0.00,,,0.00,Rainwise IP-100,2013-08-12 20:17:00,
2013-08-12 16:22:00,85.4,73.0,30.06,NNE,22,6.3,13.0,68,0.00,,,0.00,Rainwise IP-100,2013-08-12 20:22:00,
2013-08-12 16:27:00,85.2,73.0,30.06,ENE,67,5.4,11.0,69,0.00,,,0.00,Rainwise IP-100,2013-08-12 20:27:00,
2013-08-12 16:32:00,85.1,74.0,30.06,ENE,67,10.0,11.0,70,0.00,,,0.00,Rainwise IP-100,2013-08-12 20:32:00,
2013-08-12 16:37:00,85.1,74.0,30.06,NE,45,8.2,12.0,71,0.00,,,0.00,Rainwise IP-100,2013-08-12 20:37:00,
2013-08-12 16:42:00,85.3,74.0,30.06,ENE,67,7.5,11.0,71,0.00,,,0.00,Rainwise IP-100,2013-08-12 20:42:00,
2013-08-12 16:48:00,85.5,75.0,30.05,ENE,67,7.9,14.0,72,0.00,,,0.00,Rainwise IP-100,2013-08-12 20:48:00,
2013-08-12 16:53:00,85.4,76.0,30.05,NE,45,8.2,12.0,73,0.00,,,0.00,Rainwise IP-100,2013-08-12 20:53:00,
2013-08-12 16:58:00,85.4,75.0,30.05,NNE,22,8.9,12.0,72,0.00,,,0.00,Rainwise IP-100,2013-08-12 20:58:00,
2013-08-12 17:03:00,85.4,74.0,30.05,ENE,67,5.6,13.0,71,0.00,,,0.00,Rainwise IP-100,2013-08-12 21:03:00,
2013-08-12 17:08:00,85.5,74.0,30.05,ENE,67,11.0,13.0,71,0.00,,,0.00,Rainwise IP-100,2013-08-12 21:08:00,
2013-08-12 17:13:00,85.5,74.0,30.05,ENE,67,7.9,11.0,71,0.00,,,0.00,Rainwise IP-100,2013-08-12 21:13:00,
2013-08-12 17:18:00,85.4,74.0,30.04,NE,45,12.8,12.8,71,0.00,,,0.00,Rainwise IP-100,2013-08-12 21:18:00,
2013-08-12 17:24:00,85.3,75.0,30.04,ENE,67,9.8,13.0,72,0.00,,,0.00,Rainwise IP-100,2013-08-12 21:24:00,
2013-08-12 17:29:00,85.5,75.0,30.04,NE,45,10.0,14.0,72,0.00,,,0.00,Rainwise IP-100,2013-08-12 21:29:00,
2013-08-12 17:34:00,85.4,75.0,30.04,ENE,67,7.0,12.0,72,0.00,,,0.00,Rainwise IP-100,2013-08-12 21:34:00,
2013-08-12 17:39:00,84.9,75.0,30.04,ENE,67,6.3,14.0,73,0.00,,,0.00,Rainwise IP-100,2013-08-12 21:39:00,
2013-08-12 17:44:00,84.9,75.0,30.04,ENE,67,5.6,12.0,73,0.00,,,0.00,Rainwise IP-100,2013-08-12 21:44:00,
2013-08-12 17:49:00,85.0,74.0,30.05,East,90,5.1,12.0,72,0.00,,,0.00,Rainwise IP-100,2013-08-12 21:49:00,
2013-08-12 17:54:00,85.0,74.0,30.05,ENE,67,6.8,13.0,71,0.00,,,0.00,Rainwise IP-100,2013-08-12 21:54:00,
2013-08-12 17:59:00,85.3,74.0,30.05,ENE,67,10.0,12.0,70,0.00,,,0.00,Rainwise IP-100,2013-08-12 21:59:00,
2013-08-12 18:05:00,85.5,74.0,30.05,NE,45,12.8,12.8,70,0.00,,,0.00,Rainwise IP-100,2013-08-12 22:05:00,
2013-08-12 18:10:00,85.7,74.0,30.05,NE,45,7.2,14.0,70,0.00,,,0.00,Rainwise IP-100,2013-08-12 22:10:00,
2013-08-12 18:15:00,85.7,74.0,30.05,NE,45,16.3,16.3,70,0.00,,,0.00,Rainwise IP-100,2013-08-12 22:15:00,
2013-08-12 18:20:00,85.5,74.0,30.04,NE,45,8.6,18.0,71,0.00,,,0.00,Rainwise IP-100,2013-08-12 22:20:00,
2013-08-12 18:25:00,85.3,74.0,30.04,ENE,67,8.2,14.0,71,0.00,,,0.00,Rainwise IP-100,2013-08-12 22:25:00,
2013-08-12 18:30:00,85.2,75.0,30.04,North,360,9.3,13.0,72,0.00,,,0.00,Rainwise IP-100,2013-08-12 22:30:00,
2013-08-12 18:35:00,85.1,74.0,30.04,NE,45,10.0,14.0,72,0.00,,,0.00,Rainwise IP-100,2013-08-12 22:35:00,
2013-08-12 18:41:00,85.0,74.0,30.05,ENE,67,8.2,15.0,72,0.00,,,0.00,Rainwise IP-100,2013-08-12 22:41:00,
2013-08-12 18:46:00,84.8,75.0,30.04,NNE,22,9.6,13.0,73,0.00,,,0.00,Rainwise IP-100,2013-08-12 22:46:00,
2013-08-12 18:51:00,84.6,75.0,30.05,East,90,4.9,12.0,73,0.00,,,0.00,Rainwise IP-100,2013-08-12 22:51:00,
2013-08-12 18:54:00,84.5,75.0,30.04,ENE,67,8.4,12.0,73,0.00,,,0.00,Rainwise IP-100,2013-08-12 22:54:00,
2013-08-12 19:00:00,84.5,75.0,30.04,ENE,67,4.7,13.0,73,0.00,,,0.00,Rainwise IP-100,2013-08-12 23:00:00,
2013-08-12 19:05:00,84.5,75.0,30.04,ENE,67,9.6,15.0,74,0.00,,,0.00,Rainwise IP-100,2013-08-12 23:05:00,
2013-08-12 19:10:00,84.3,75.0,30.04,NNE,22,6.8,13.0,74,0.00,,,0.00,Rainwise IP-100,2013-08-12 23:10:00,
2013-08-12 19:15:00,84.2,75.0,30.05,ENE,67,8.6,11.0,74,0.00,,,0.00,Rainwise IP-100,2013-08-12 23:15:00,
2013-08-12 19:20:00,84.1,75.0,30.05,ENE,67,7.5,12.0,75,0.00,,,0.00,Rainwise IP-100,2013-08-12 23:20:00,
2013-08-12 19:25:00,84.0,75.0,30.05,NNE,22,7.7,11.0,75,0.00,,,0.00,Rainwise IP-100,2013-08-12 23:25:00,
2013-08-12 19:30:00,84.0,76.0,30.05,NE,45,6.1,11.0,76,0.00,,,0.00,Rainwise IP-100,2013-08-12 23:30:00,
2013-08-12 19:36:00,83.9,76.0,30.05,ENE,67,13.8,13.8,76,0.00,,,0.00,Rainwise IP-100,2013-08-12 23:36:00,
2013-08-12 19:41:00,83.8,75.0,30.05,ENE,67,11.4,13.0,76,0.00,,,0.00,Rainwise IP-100,2013-08-12 23:41:00,
2013-08-12 19:46:00,83.6,75.0,30.04,ENE,67,3.5,11.0,76,0.00,,,0.00,Rainwise IP-100,2013-08-12 23:46:00,
2013-08-12 19:51:00,83.5,75.0,30.04,NE,45,5.6,10.0,76,0.00,,,0.00,Rainwise IP-100,2013-08-12 23:51:00,
2013-08-12 19:56:00,83.5,75.0,30.04,ENE,67,5.1,10.0,76,0.00,,,0.00,Rainwise IP-100,2013-08-12 23:56:00,
2013-08-12 20:01:00,83.5,76.0,30.03,ENE,67,4.2,8.0,78,0.00,,,0.00,Rainwise IP-100,2013-08-13 00:01:00,
2013-08-12 20:06:00,83.3,76.0,30.04,NE,45,7.2,10.0,78,0.00,,,0.00,Rainwise IP-100,2013-08-13 00:06:00,
2013-08-12 20:11:00,83.3,75.0,30.05,ENE,67,6.1,11.0,77,0.00,,,0.00,Rainwise IP-100,2013-08-13 00:11:00,
2013-08-12 20:17:00,83.3,75.0,30.04,East,90,5.1,13.0,77,0.00,,,0.00,Rainwise IP-100,2013-08-13 00:17:00,
2013-08-12 20:22:00,83.3,75.0,30.04,NE,45,8.2,12.0,77,0.00,,,0.00,Rainwise IP-100,2013-08-13 00:22:00,
2013-08-12 20:27:00,83.3,76.0,30.04,ENE,67,7.7,11.0,78,0.00,,,0.00,Rainwise IP-100,2013-08-13 00:27:00,
2013-08-12 20:32:00,83.2,76.0,30.05,ENE,67,9.8,14.0,78,0.00,,,0.00,Rainwise IP-100,2013-08-13 00:32:00,
2013-08-12 20:37:00,83.2,76.0,30.04,NNE,22,9.3,12.0,78,0.00,,,0.00,Rainwise IP-100,2013-08-13 00:37:00,
2013-08-12 20:42:00,83.2,76.0,30.05,ENE,67,4.4,13.0,78,0.00,,,0.00,Rainwise IP-100,2013-08-13 00:42:00,
2013-08-12 20:47:00,83.2,76.0,30.05,ENE,67,7.2,11.0,78,0.00,,,0.00,Rainwise IP-100,2013-08-13 00:47:00,
2013-08-12 20:53:00,83.2,76.0,30.05,ENE,67,8.2,9.0,79,0.00,,,0.00,Rainwise IP-100,2013-08-13 00:53:00,
2013-08-12 20:58:00,83.2,76.0,30.05,East,90,5.4,10.0,79,0.00,,,0.00,Rainwise IP-100,2013-08-13 00:58:00,
2013-08-12 21:03:00,83.2,76.0,30.05,NNE,22,8.6,9.0,79,0.00,,,0.00,Rainwise IP-100,2013-08-13 01:03:00,
2013-08-12 21:08:00,83.1,76.0,30.05,ENE,67,6.1,8.0,79,0.00,,,0.00,Rainwise IP-100,2013-08-13 01:08:00,
2013-08-12 21:13:00,83.0,75.0,30.06,ENE,67,5.1,9.0,78,0.00,,,0.00,Rainwise IP-100,2013-08-13 01:13:00,
2013-08-12 21:18:00,83.0,75.0,30.06,ENE,67,4.2,8.0,78,0.00,,,0.00,Rainwise IP-100,2013-08-13 01:18:00,
2013-08-12 21:23:00,83.0,75.0,30.06,ENE,67,5.1,10.0,78,0.00,,,0.00,Rainwise IP-100,2013-08-13 01:23:00,
2013-08-12 21:28:00,83.0,75.0,30.06,ENE,67,6.8,8.0,78,0.00,,,0.00,Rainwise IP-100,2013-08-13 01:28:00,
2013-08-12 21:34:00,83.1,75.0,30.06,NE,45,7.9,8.0,78,0.00,,,0.00,Rainwise IP-100,2013-08-13 01:34:00,
2013-08-12 21:39:00,83.1,75.0,30.06,East,90,4.9,8.0,78,0.00,,,0.00,Rainwise IP-100,2013-08-13 01:39:00,
2013-08-12 21:44:00,83.0,76.0,30.06,East,90,2.6,8.0,79,0.00,,,0.00,Rainwise IP-100,2013-08-13 01:44:00,
2013-08-12 21:49:00,82.9,76.0,30.07,ENE,67,5.6,8.0,80,0.00,,,0.00,Rainwise IP-100,2013-08-13 01:49:00,
2013-08-12 21:52:00,83.0,76.0,30.07,ENE,67,5.4,7.0,80,0.00,,,0.00,Rainwise IP-100,2013-08-13 01:52:00,
2013-08-12 21:57:00,83.0,76.0,30.06,ENE,67,3.3,7.0,80,0.00,,,0.00,Rainwise IP-100,2013-08-13 01:57:00,
2013-08-12 22:02:00,83.0,76.0,30.06,NNE,22,4.2,6.0,79,0.00,,,0.00,Rainwise IP-100,2013-08-13 02:02:00,
2013-08-12 22:07:00,83.0,76.0,30.06,ESE,112,1.9,7.0,79,0.00,,,0.00,Rainwise IP-100,2013-08-13 02:07:00,
2013-08-12 22:12:00,83.0,76.0,30.06,East,90,6.1,7.0,79,0.00,,,0.00,Rainwise IP-100,2013-08-13 02:12:00,
2013-08-12 22:18:00,83.1,76.0,30.07,ENE,67,5.6,7.0,79,0.00,,,0.00,Rainwise IP-100,2013-08-13 02:18:00,
2013-08-12 22:23:00,83.1,76.0,30.07,ENE,67,2.6,9.0,79,0.00,,,0.00,Rainwise IP-100,2013-08-13 02:23:00,
2013-08-12 22:28:00,83.0,76.0,30.08,ENE,67,7.0,7.0,79,0.00,,,0.00,Rainwise IP-100,2013-08-13 02:28:00,
2013-08-12 22:33:00,83.0,75.0,30.07,ENE,67,7.5,7.5,78,0.00,,,0.00,Rainwise IP-100,2013-08-13 02:33:00,
2013-08-12 22:38:00,83.0,75.0,30.07,ENE,67,4.7,7.0,78,0.00,,,0.00,Rainwise IP-100,2013-08-13 02:38:00,
2013-08-12 22:43:00,83.0,75.0,30.08,ENE,67,7.5,9.0,78,0.00,,,0.00,Rainwise IP-100,2013-08-13 02:43:00,
2013-08-12 22:48:00,83.0,75.0,30.07,East,90,7.0,9.0,77,0.00,,,0.00,Rainwise IP-100,2013-08-13 02:48:00,
2013-08-12 22:54:00,83.1,75.0,30.08,ENE,67,4.2,9.0,78,0.00,,,0.00,Rainwise IP-100,2013-08-13 02:54:00,
2013-08-12 22:59:00,83.0,75.0,30.08,NE,45,6.5,10.0,78,0.00,,,0.00,Rainwise IP-100,2013-08-13 02:59:00,
2013-08-12 23:04:00,83.0,75.0,30.08,ENE,67,7.2,9.0,78,0.00,,,0.00,Rainwise IP-100,2013-08-13 03:04:00,
2013-08-12 23:09:00,83.0,76.0,30.07,SSE,157,4.2,9.0,79,0.00,,,0.00,Rainwise IP-100,2013-08-13 03:09:00,
2013-08-12 23:14:00,82.9,76.0,30.08,ESE,112,4.9,9.0,80,0.00,,,0.00,Rainwise IP-100,2013-08-13 03:14:00,
2013-08-12 23:19:00,83.0,76.0,30.08,ENE,67,5.8,7.0,80,0.00,,,0.00,Rainwise IP-100,2013-08-13 03:19:00,
2013-08-12 23:24:00,83.0,76.0,30.08,ENE,67,4.7,7.0,80,0.00,,,0.00,Rainwise IP-100,2013-08-13 03:24:00,
2013-08-12 23:29:00,83.0,76.0,30.08,ESE,112,2.6,7.0,80,0.00,,,0.00,Rainwise IP-100,2013-08-13 03:29:00,
2013-08-12 23:35:00,83.0,76.0,30.07,ENE,67,4.7,8.0,80,0.00,,,0.00,Rainwise IP-100,2013-08-13 03:35:00,
2013-08-12 23:40:00,83.0,76.0,30.08,ENE,67,3.7,8.0,80,0.00,,,0.00,Rainwise IP-100,2013-08-13 03:40:00,
2013-08-12 23:45:00,83.1,76.0,30.08,ENE,67,6.8,7.0,80,0.00,,,0.00,Rainwise IP-100,2013-08-13 03:45:00,
2013-08-12 23:53:00,82.1,76.0,30.07,ENE,67,5.4,16.0,82,0.06,,,0.01,Rainwise IP-100,2013-08-13 03:53:00,
2013-08-12 23:58:00,81.1,76.0,30.07,ENE,67,4.2,8.0,84,0.00,,,0.01,Rainwise IP-100,2013-08-13 03:58:00,